CW5283 Weather Reports


Display with metric or nautical units.
time (UTC)temp
F
wind
direction
speed
MPH
gust
MPH
rain 1hr
in
rain 24hr
in
rain mn
in
humidity
%
barometer
mb
20260508023050 66 318 0.0 0.0 0.00 0.00 0.00 65 1010.4
20260508022737 67 316 0.0 0.0 0.00 0.00 0.00 65 1010.4
20260508022534 67 316 0.0 0.0 0.00 0.00 0.00 65 1010.2
20260508022038 67 287 0.0 0.0 0.00 0.00 0.00 64 1010.2
20260508021727 67 263 0.0 0.0 0.00 0.00 0.00 64 1010.2
20260508021524 67 242 0.0 0.0 0.00 0.00 0.00 63 1010.2
20260508021030 68 242 0.0 0.0 0.00 0.00 0.00 63 1010.3
20260508020721 68 242 0.0 0.0 0.00 0.00 0.00 62 1010.3
20260508020519 68 241 0.0 0.0 0.00 0.00 0.00 62 1010.3
20260508020027 68 241 0.0 0.0 0.00 0.00 0.00 62 1010.3
20260508015730 68 246 0.0 0.0 0.00 0.00 0.00 61 1010.3
20260508015532 69 246 0.0 0.0 0.00 0.00 0.00 61 1010.3
20260508015035 69 252 0.0 0.0 0.00 0.00 0.00 61 1010.3
20260508014741 69 286 0.0 0.0 0.00 0.00 0.00 61 1010.3
20260508014542 69 288 0.0 0.0 0.00 0.00 0.00 60 1010.3
20260508014023 69 288 0.0 0.0 0.00 0.00 0.00 60 1010.3
20260508013730 70 288 0.0 0.0 0.00 0.00 0.00 59 1010.3
20260508013532 70 288 0.0 0.0 0.00 0.00 0.00 59 1010.3
20260508013058 70 236 0.0 0.0 0.00 0.00 0.00 59 1010.3
20260508012721 70 252 0.0 0.0 0.00 0.00 0.00 58 1010.2
20260508012525 70 252 0.0 0.0 0.00 0.00 0.00 58 1010.2
20260508012029 71 246 0.0 0.0 0.00 0.00 0.00 58 1010.2
20260508011739 71 280 0.0 0.0 0.00 0.00 0.00 57 1010.2
20260508011521 71 274 0.0 0.0 0.00 0.00 0.00 57 1010.2
20260508011024 72 241 0.0 0.0 0.00 0.00 0.00 56 1010.1
20260508010737 72 240 0.0 0.0 0.00 0.00 0.00 56 1010.1
20260508010557 72 225 0.0 0.0 0.00 0.00 0.00 56 1010.1
20260508010039 72 286 0.0 0.0 0.00 0.00 0.00 55 1010.1
20260508005746 72 286 0.0 0.0 0.00 0.00 0.00 55 1010.1
20260508005525 72 286 0.0 0.0 0.00 0.00 0.00 55 1010.1
20260508005028 72 280 0.0 0.0 0.00 0.00 0.00 54 1010.1
20260508004721 73 272 0.0 0.0 0.00 0.00 0.00 53 1010.1
20260508004519 73 295 0.0 0.0 0.00 0.00 0.00 53 1010.1
20260508004021 73 250 0.0 0.0 0.00 0.00 0.00 53 1010.0
20260508003733 73 248 0.0 0.0 0.00 0.00 0.00 53 1010.0
20260508003530 73 310 0.0 0.0 0.00 0.00 0.00 52 1010.0
20260508003032 73 243 0.0 0.0 0.00 0.00 0.00 53 1010.0
20260508002739 73 239 0.0 0.0 0.00 0.00 0.00 52 1010.0
20260508002537 73 288 0.0 0.0 0.00 0.00 0.00 53 1010.0
20260508002019 73 252 0.0 0.0 0.00 0.00 0.00 52 1010.0
20260508001729 74 252 0.0 0.0 0.00 0.00 0.00 51 1010.0
20260508001526 74 244 0.0 0.0 0.00 0.00 0.00 51 1010.0
20260508001047 74 250 0.0 0.0 0.00 0.00 0.00 50 1010.0
20260508000735 75 234 0.0 0.0 0.00 0.00 0.00 50 1010.0
20260508000534 75 238 0.0 0.0 0.00 0.00 0.00 50 1010.0
20260508000035 76 228 0.0 0.0 0.00 0.00 0.00 48 1010.0
20260507235721 76 285 0.0 0.0 0.00 0.00 0.00 47 1010.0
20260507235539 76 251 0.0 0.0 0.00 0.00 0.00 48 1010.0
20260507235021 77 287 0.0 0.0 0.00 0.00 0.00 46 1010.0
20260507234730 77 300 0.0 0.0 0.00 0.00 0.00 47 1010.0
20260507234530 77 292 0.0 0.0 0.00 0.00 0.00 47 1010.0
20260507234059 77 249 0.0 0.0 0.00 0.00 0.00 46 1010.0
20260507233726 77 248 0.0 0.0 0.00 0.00 0.00 46 1010.0
20260507233523 77 256 0.0 0.0 0.00 0.00 0.00 46 1010.0
20260507233025 77 294 0.0 0.0 0.00 0.00 0.00 47 1010.0
20260507232735 77 291 0.0 0.0 0.00 0.00 0.00 47 1010.0
20260507232533 76 296 0.0 0.0 0.00 0.00 0.00 47 1010.0
20260507232022 76 259 0.0 0.0 0.00 0.00 0.00 48 1010.0
20260507231728 77 282 0.0 0.0 0.00 0.00 0.00 47 1010.0
20260507231524 77 274 0.0 0.0 0.00 0.00 0.00 47 1010.0
20260507231029 77 275 0.0 0.0 0.00 0.00 0.00 47 1010.0
20260507230734 77 301 0.0 0.0 0.00 0.00 0.00 47 1010.0
20260507230535 77 276 0.0 0.0 0.00 0.00 0.00 47 1010.0
20260507230016 77 268 0.0 0.0 0.00 0.00 0.00 46 1010.0
20260507225721 77 259 0.0 0.0 0.00 0.00 0.00 47 1010.1
20260507225546 77 234 0.0 0.0 0.00 0.00 0.00 46 1010.1
20260507225028 77 249 0.0 0.0 0.00 0.00 0.00 47 1010.1
20260507224754 77 282 0.0 0.0 0.00 0.00 0.00 47 1010.1
20260507224533 77 264 0.0 0.0 0.00 0.00 0.00 47 1010.1
20260507224038 77 254 0.0 0.0 0.00 0.00 0.00 48 1010.2
20260507223741 76 246 0.0 0.0 0.00 0.00 0.00 48 1010.2
20260507223524 76 250 0.0 0.0 0.00 0.00 0.00 48 1010.2
20260507223044 76 281 0.0 0.0 0.00 0.00 0.00 48 1010.2
20260507222726 76 209 0.0 0.0 0.00 0.00 0.00 47 1010.4
20260507222530 77 250 0.0 0.0 0.00 0.00 0.00 47 1010.4
20260507222034 76 236 0.0 0.0 0.00 0.00 0.00 47 1010.4
20260507221737 76 306 0.0 0.0 0.00 0.00 0.00 48 1010.4
20260507221538 76 295 0.0 0.0 0.00 0.00 0.00 49 1010.4
20260507221019 76 237 0.0 0.0 0.00 0.00 0.00 49 1010.5
20260507220724 76 247 0.0 0.0 0.00 0.00 0.00 48 1010.5
20260507220524 76 278 0.0 0.0 0.00 0.00 0.00 50 1010.5
20260507220023 76 260 0.0 0.0 0.00 0.00 0.00 49 1010.5
20260507215729 77 265 0.0 0.0 0.00 0.00 0.00 48 1010.6
20260507215534 77 255 0.0 0.0 0.00 0.00 0.00 48 1010.6
20260507215038 77 304 0.0 0.0 0.00 0.00 0.00 48 1010.6
20260507214722 77 239 0.0 0.0 0.00 0.00 0.00 47 1010.6
20260507214526 77 234 0.0 0.0 0.00 0.00 0.00 48 1010.6
20260507214028 78 298 0.0 0.0 0.00 0.00 0.00 47 1010.8
20260507213731 78 252 0.0 0.0 0.00 0.00 0.00 47 1010.8
20260507213531 78 245 0.0 0.0 0.00 0.00 0.00 48 1010.8
20260507213032 77 312 0.0 0.0 0.00 0.00 0.00 48 1010.8
20260507212735 77 267 0.0 0.0 0.00 0.00 0.00 48 1010.9
20260507212534 77 349 0.0 0.0 0.00 0.00 0.00 49 1010.9
20260507212035 77 244 0.0 0.0 0.00 0.00 0.00 50 1010.9
20260507211724 76 286 0.0 0.0 0.00 0.00 0.00 50 1010.9
20260507211541 76 303 0.0 0.0 0.00 0.00 0.00 51 1010.9
20260507211023 76 266 0.0 0.0 0.00 0.00 0.00 50 1011.0
20260507210727 76 269 0.0 0.0 0.00 0.00 0.00 50 1011.0
20260507210529 77 242 0.0 0.0 0.00 0.00 0.00 49 1011.0
20260507210034 77 283 0.0 0.0 0.00 0.00 0.00 50 1011.0
20260507205724 77 297 0.0 0.0 0.00 0.00 0.00 50 1011.0
20260507205520 77 287 0.0 0.0 0.00 0.00 0.00 49 1011.0
20260507205045 77 292 0.0 0.0 0.00 0.00 0.00 50 1011.0
20260507204753 77 263 0.0 0.0 0.00 0.00 0.00 50 1011.0
20260507204531 77 253 0.0 0.0 0.00 0.00 0.00 50 1011.0
20260507204031 77 219 0.0 0.0 0.00 0.00 0.00 48 1011.0
20260507203740 77 237 0.0 0.0 0.00 0.00 0.00 48 1011.0
20260507203537 77 261 0.0 0.0 0.00 0.00 0.00 50 1011.0
20260507203037 77 261 0.0 0.0 0.00 0.00 0.00 48 1011.0
20260507202722 77 292 0.0 0.0 0.00 0.00 0.00 49 1011.0
20260507202519 77 286 0.0 0.0 0.00 0.00 0.00 49 1011.0
20260507202024 77 244 0.0 0.0 0.00 0.00 0.00 50 1011.0
20260507201754 77 245 0.0 0.0 0.00 0.00 0.00 50 1011.0
20260507201530 77 271 0.0 0.0 0.00 0.00 0.00 50 1011.0
20260507201051 77 239 0.0 0.0 0.00 0.00 0.00 49 1011.2
20260507200738 77 240 0.0 0.0 0.00 0.00 0.00 49 1011.2
20260507200555 77 254 0.0 0.0 0.00 0.00 0.00 48 1011.2
20260507200037 77 317 0.0 0.0 0.00 0.00 0.00 48 1011.2
20260507195724 77 290 0.0 0.0 0.00 0.00 0.00 49 1011.3
20260507195523 77 322 0.0 0.0 0.00 0.00 0.00 49 1011.3
20260507195022 77 251 0.0 0.0 0.00 0.00 0.00 48 1011.3
20260507194729 77 259 0.0 0.0 0.00 0.00 0.00 48 1011.3
20260507194528 77 249 0.0 0.0 0.00 0.00 0.00 48 1011.3
20260507194030 77 349 0.0 0.0 0.00 0.00 0.00 47 1011.5
20260507193737 77 278 0.0 0.0 0.00 0.00 0.00 48 1011.5
20260507193534 77 298 0.0 0.0 0.00 0.00 0.00 47 1011.5
20260507193038 76 257 0.0 0.0 0.00 0.00 0.00 49 1011.5
20260507192722 76 298 0.0 0.0 0.00 0.00 0.00 47 1011.6
20260507192518 76 300 0.0 0.0 0.00 0.00 0.00 48 1011.6
20260507192022 76 276 0.0 0.0 0.00 0.00 0.00 50 1011.6
20260507191731 75 270 0.0 0.0 0.00 0.00 0.00 49 1011.6
20260507191528 75 270 0.0 0.0 0.00 0.00 0.00 50 1011.6
20260507191029 75 270 0.0 0.0 0.00 0.00 0.00 47 1011.9
20260507190718 75 284 0.0 0.0 0.00 0.00 0.00 48 1011.9
20260507190518 75 276 0.0 0.0 0.00 0.00 0.00 47 1011.9
20260507190041 75 261 0.0 0.0 0.00 0.00 0.00 48 1011.9
20260507185726 75 289 0.0 0.0 0.00 0.00 0.00 48 1012.0
20260507185524 75 290 0.0 0.0 0.00 0.00 0.00 47 1012.0
20260507185046 75 257 0.0 0.0 0.00 0.00 0.00 47 1012.0
20260507184732 75 258 0.0 0.0 0.00 0.00 0.00 48 1012.0
20260507184529 75 309 0.0 0.0 0.00 0.00 0.00 47 1012.0
20260507184031 74 276 0.0 0.0 0.00 0.00 0.00 48 1012.1
20260507183740 74 275 0.0 0.0 0.00 0.00 0.00 49 1012.1
20260507183518 74 276 0.0 0.0 0.00 0.00 0.00 48 1012.1
20260507183043 74 277 0.0 0.0 0.00 0.00 0.00 49 1012.1
20260507182730 74 277 0.0 0.0 0.00 0.00 0.00 49 1012.1
20260507182530 74 284 0.0 0.0 0.00 0.00 0.00 47 1012.1
20260507182052 74 293 0.0 0.0 0.00 0.00 0.00 48 1012.1
20260507181739 74 271 0.0 0.0 0.00 0.00 0.00 50 1012.1
20260507181535 74 232 0.0 0.0 0.00 0.00 0.00 51 1012.1
20260507181040 73 229 0.0 0.0 0.00 0.00 0.00 50 1012.2
20260507180727 72 229 0.0 0.0 0.00 0.00 0.00 50 1012.2
20260507180529 72 229 0.0 0.0 0.00 0.00 0.00 52 1012.2
20260507180028 72 218 0.0 0.0 0.00 0.00 0.00 53 1012.2
20260507175733 72 217 0.0 0.0 0.00 0.00 0.00 53 1012.2
20260507175536 72 242 0.0 0.0 0.00 0.00 0.00 52 1012.4
20260507175037 71 255 0.0 0.0 0.00 0.00 0.00 53 1012.4
20260507174721 71 250 0.0 0.0 0.00 0.00 0.00 52 1012.4
20260507174543 71 250 0.0 0.0 0.00 0.00 0.00 54 1012.4
20260507174022 70 250 0.0 0.0 0.00 0.00 0.00 53 1012.5
20260507173727 70 250 0.0 0.0 0.00 0.00 0.00 54 1012.5
20260507173529 70 250 0.0 0.0 0.00 0.00 0.00 53 1012.5
20260507173030 70 259 0.0 0.0 0.00 0.00 0.00 53 1012.5
20260507172731 70 259 0.0 0.0 0.00 0.00 0.00 54 1012.5
20260507172556 70 259 0.0 0.0 0.00 0.00 0.00 54 1012.6
20260507172038 69 269 0.0 0.0 0.00 0.00 0.00 55 1012.6
20260507171723 69 271 0.0 0.0 0.00 0.00 0.00 56 1012.6
20260507171545 69 273 0.0 0.0 0.00 0.00 0.00 57 1012.6
20260507171024 68 263 0.0 0.0 0.00 0.00 0.00 58 1012.7
20260507170732 68 263 0.0 0.0 0.00 0.00 0.00 59 1012.7
20260507170533 67 263 0.0 0.0 0.00 0.00 0.00 60 1012.7
20260507170036 67 259 0.0 0.0 0.00 0.00 0.00 59 1012.7
20260507165736 67 259 0.0 0.0 0.00 0.00 0.00 60 1012.7
20260507165538 67 254 0.0 0.0 0.00 0.00 0.00 61 1012.7
20260507165020 67 257 0.0 0.0 0.00 0.00 0.00 60 1012.7
20260507164727 66 254 0.0 0.0 0.00 0.00 0.00 61 1012.7
20260507164526 66 234 0.0 0.0 0.00 0.00 0.00 62 1012.7
20260507164027 65 233 0.0 0.0 0.00 0.00 0.00 64 1012.9
20260507163729 65 233 0.0 0.0 0.00 0.00 0.00 64 1012.9
20260507163529 65 233 0.0 0.0 0.00 0.00 0.00 64 1012.9
20260507163030 64 233 0.0 0.0 0.00 0.00 0.00 66 1012.9
20260507162734 64 233 0.0 0.0 0.00 0.00 0.00 67 1012.9
20260507162535 64 233 0.0 0.0 0.00 0.00 0.00 67 1012.9
20260507162056 63 233 0.0 0.0 0.00 0.00 0.00 69 1012.9
20260507161741 63 231 0.0 0.0 0.00 0.00 0.00 70 1012.9
20260507161522 62 231 0.0 0.0 0.00 0.00 0.00 71 1012.9
20260507161043 62 226 0.0 0.0 0.00 0.00 0.00 72 1012.9
20260507160726 61 227 0.0 0.0 0.00 0.00 0.00 72 1012.9
20260507160528 61 227 0.0 0.0 0.00 0.00 0.00 73 1012.9
20260507160029 61 226 0.0 0.0 0.00 0.00 0.00 73 1012.9
20260507155738 60 227 0.0 0.0 0.00 0.00 0.00 73 1012.9
20260507155533 60 227 0.0 0.0 0.00 0.00 0.00 74 1013.1
20260507155033 60 229 0.0 0.0 0.00 0.00 0.00 75 1013.1
20260507154736 60 229 0.0 0.0 0.00 0.00 0.00 75 1013.1
20260507154535 60 229 0.0 0.0 0.00 0.00 0.00 75 1013.1
20260507154100 59 229 0.0 0.0 0.00 0.00 0.00 76 1013.2
20260507153727 59 235 0.0 0.0 0.00 0.00 0.00 77 1013.2
20260507153543 59 229 0.0 0.0 0.00 0.00 0.00 77 1013.2
20260507153023 59 229 0.0 0.0 0.00 0.00 0.00 78 1013.2
20260507152724 58 229 0.0 0.0 0.00 0.00 0.00 78 1013.2
20260507152528 58 229 0.0 0.0 0.00 0.00 0.00 78 1013.2
20260507152029 58 229 0.0 0.0 0.00 0.00 0.00 78 1013.2
20260507151738 58 229 0.0 0.0 0.00 0.00 0.00 78 1013.2
20260507151535 58 229 0.0 0.0 0.00 0.00 0.00 78 1013.2
20260507151036 58 237 0.0 0.0 0.00 0.00 0.00 79 1013.2
20260507150724 57 238 0.0 0.0 0.00 0.00 0.00 79 1013.2
20260507150521 57 240 0.0 0.0 0.00 0.00 0.00 79 1013.2
20260507150022 57 241 0.0 0.0 0.00 0.00 0.00 80 1013.2
20260507145729 57 241 0.0 0.0 0.00 0.00 0.00 80 1013.1
20260507145529 57 241 0.0 0.0 0.00 0.00 0.00 80 1013.1
20260507145032 57 241 0.0 0.0 0.00 0.00 0.00 80 1013.1
20260507144740 56 241 0.0 0.0 0.00 0.00 0.00 80 1013.1
20260507144600 56 216 0.0 0.0 0.00 0.00 0.00 80 1013.1
20260507144021 56 215 0.0 0.0 0.00 0.00 0.00 81 1013.0
20260507143730 56 201 0.0 0.0 0.00 0.00 0.00 81 1013.0
20260507143547 56 201 0.0 0.0 0.00 0.00 0.00 81 1013.0
20260507143027 56 201 0.0 0.0 0.00 0.00 0.00 82 1013.0
20260507142733 56 200 0.0 0.0 0.00 0.00 0.00 82 1012.9
20260507142551 55 200 0.0 0.0 0.00 0.00 0.00 82 1012.9
20260507142031 55 184 0.0 0.0 0.00 0.00 0.00 82 1012.9
20260507141800 55 130 0.0 0.0 0.00 0.00 0.00 82 1012.9
20260507141556 55 130 0.0 0.0 0.00 0.00 0.00 82 1012.9
20260507141035 55 130 0.0 0.0 0.00 0.00 0.00 82 1012.6
20260507140723 55 88 0.0 0.0 0.00 0.00 0.00 82 1012.6
20260507140541 55 88 0.0 0.0 0.00 0.00 0.00 82 1012.6
20260507140021 55 64 0.0 0.0 0.00 0.00 0.00 82 1012.6
20260507135748 55 65 0.0 0.0 0.00 0.00 0.00 82 1012.6
20260507135523 54 65 0.0 0.0 0.00 0.00 0.00 82 1012.6
20260507135024 54 65 0.0 0.0 0.00 0.00 0.00 82 1012.6
20260507134753 54 65 0.0 0.0 0.00 0.00 0.00 82 1012.6
20260507134528 54 65 0.0 0.0 0.00 0.00 0.00 82 1012.6
20260507134029 54 65 0.0 0.0 0.00 0.00 0.00 82 1012.5
20260507133738 54 65 0.0 0.0 0.00 0.00 0.00 82 1012.5
20260507133555 54 65 0.0 0.0 0.00 0.00 0.00 82 1012.5
20260507133035 54 65 0.0 0.0 0.00 0.00 0.00 82 1012.5
20260507132723 54 65 0.0 0.0 0.00 0.00 0.00 82 1012.4
20260507132539 54 65 0.0 0.0 0.00 0.00 0.00 81 1012.4
20260507132039 54 62 0.0 0.0 0.00 0.00 0.00 81 1012.4
20260507131728 54 50 0.0 0.0 0.00 0.00 0.00 81 1012.4
20260507131526 54 50 0.0 0.0 0.00 0.00 0.00 81 1012.4
20260507131046 54 50 0.0 0.0 0.00 0.00 0.00 81 1012.4
20260507130734 54 50 0.0 0.0 0.00 0.00 0.00 80 1012.4
20260507130530 54 50 0.0 0.0 0.00 0.00 0.00 80 1012.4
20260507130032 54 49 0.0 0.0 0.00 0.00 0.00 80 1012.4
20260507125738 54 49 0.0 0.0 0.00 0.00 0.00 80 1012.4
20260507125536 54 49 0.0 0.0 0.00 0.00 0.00 80 1012.2
20260507125021 54 49 0.0 0.0 0.00 0.00 0.00 80 1012.2
20260507124729 54 49 0.0 0.0 0.00 0.00 0.00 80 1012.2
20260507124526 54 49 0.0 0.0 0.00 0.00 0.00 80 1012.2
20260507124047 54 49 0.0 0.0 0.00 0.00 0.00 80 1012.1
20260507123734 54 49 0.0 0.0 0.00 0.00 0.00 80 1012.1
20260507123532 54 49 0.0 0.0 0.00 0.00 0.00 80 1012.1
20260507123033 54 49 0.0 0.0 0.00 0.00 0.00 80 1012.1
20260507122801 54 49 0.0 0.0 0.00 0.00 0.00 80 1012.1
20260507122517 54 49 0.0 0.0 0.00 0.00 0.00 80 1012.1
20260507122042 54 49 0.0 0.0 0.00 0.00 0.00 80 1012.1
20260507121730 54 49 0.0 0.0 0.00 0.00 0.00 80 1012.1
20260507121527 54 49 0.0 0.0 0.00 0.00 0.00 80 1012.1
20260507121029 54 49 0.0 0.0 0.00 0.00 0.00 79 1012.1
20260507120736 54 49 0.0 0.0 0.00 0.00 0.00 79 1012.1
20260507120533 54 49 0.0 0.0 0.00 0.00 0.00 79 1012.1
20260507120035 54 49 0.0 0.0 0.00 0.00 0.00 79 1012.1
20260507115722 54 49 0.0 0.0 0.00 0.00 0.00 79 1012.1
20260507115522 54 49 0.0 0.0 0.00 0.00 0.00 79 1012.1
20260507115044 54 49 0.0 0.0 0.00 0.00 0.00 79 1012.1
20260507114727 54 49 0.0 0.0 0.00 0.00 0.00 79 1012.1
20260507114523 55 49 0.0 0.0 0.00 0.00 0.00 79 1012.1
20260507114028 55 49 0.0 0.0 0.00 0.00 0.00 78 1012.1
20260507113734 55 49 0.0 0.0 0.00 0.00 0.00 78 1012.1
20260507113536 55 49 0.0 0.0 0.00 0.00 0.00 78 1012.1
20260507113037 55 49 0.0 0.0 0.00 0.00 0.00 78 1012.1
20260507112801 55 49 0.0 0.0 0.00 0.00 0.00 78 1012.1
20260507112521 55 49 0.0 0.0 0.00 0.00 0.00 78 1012.3
20260507112021 55 49 0.0 0.0 0.00 0.00 0.00 77 1012.3
20260507111724 55 49 0.0 0.0 0.00 0.00 0.00 77 1012.3
20260507111526 55 49 0.0 0.0 0.00 0.00 0.00 77 1012.3
20260507111027 55 49 0.0 0.0 0.00 0.00 0.00 77 1012.2
20260507110731 55 49 0.0 0.0 0.00 0.00 0.00 77 1012.2
20260507110533 55 49 0.0 0.0 0.00 0.00 0.00 77 1012.2
20260507110037 55 49 0.0 0.0 0.00 0.00 0.00 77 1012.2
20260507105723 55 49 0.0 0.0 0.00 0.00 0.00 77 1012.2
20260507105521 55 49 0.0 0.0 0.00 0.00 0.00 77 1012.2
20260507105042 55 49 0.0 0.0 0.00 0.00 0.00 77 1012.2
20260507104745 55 49 0.0 0.0 0.00 0.00 0.00 77 1012.2
20260507104525 55 49 0.0 0.0 0.00 0.00 0.00 77 1012.2
20260507104025 55 49 0.0 0.0 0.00 0.00 0.00 77 1012.2
20260507103728 55 49 0.0 0.0 0.00 0.00 0.00 77 1012.2
20260507103528 55 49 0.0 0.0 0.00 0.00 0.00 77 1012.2
20260507103029 55 49 0.0 0.0 0.00 0.00 0.00 77 1012.2
20260507102752 55 49 0.0 0.0 0.00 0.00 0.00 77 1012.2
20260507102534 55 49 0.0 0.0 0.00 0.00 0.00 77 1012.2
20260507102035 55 49 0.0 0.0 0.00 0.00 0.00 77 1012.2
20260507101724 55 49 0.0 0.0 0.00 0.00 0.00 77 1012.2
20260507101520 55 49 0.0 0.0 0.00 0.00 0.00 77 1012.2
20260507101042 55 49 0.0 0.0 0.00 0.00 0.00 78 1012.3
20260507100746 55 40 0.0 0.0 0.00 0.00 0.00 78 1012.3
20260507100530 55 39 0.0 0.0 0.00 0.00 0.00 78 1012.3
20260507100058 55 37 0.0 0.0 0.00 0.00 0.00 78 1012.3
20260507095721 55 37 0.0 0.0 0.00 0.00 0.00 78 1012.5
20260507095525 55 37 0.0 0.0 0.00 0.00 0.00 77 1012.5
20260507095031 55 37 0.0 0.0 0.00 0.00 0.00 77 1012.5
20260507094740 55 37 0.0 0.0 0.00 0.00 0.00 77 1012.5
20260507094536 55 37 0.0 0.0 0.00 0.00 0.00 77 1012.5
20260507094036 55 37 0.0 0.0 0.00 0.00 0.00 77 1012.7
20260507093749 55 37 0.0 0.0 0.00 0.00 0.00 77 1012.7
20260507093526 55 37 0.0 0.0 0.00 0.00 0.00 77 1012.7
20260507093028 55 37 0.0 0.0 0.00 0.00 0.00 77 1012.7
20260507092737 55 37 0.0 0.0 0.00 0.00 0.00 77 1012.7
20260507092534 55 37 0.0 0.0 0.00 0.00 0.00 77 1012.9
20260507092038 55 37 0.0 0.0 0.00 0.00 0.00 77 1012.9
20260507091727 55 37 0.0 0.0 0.00 0.00 0.00 77 1012.9
20260507091523 55 37 0.0 0.0 0.00 0.00 0.00 77 1012.9
20260507091026 56 37 0.0 0.0 0.00 0.00 0.00 77 1013.0
20260507090736 56 37 0.0 0.0 0.00 0.00 0.00 77 1013.0
20260507090554 56 37 0.0 0.0 0.00 0.00 0.00 77 1013.0
20260507090036 56 37 0.0 0.0 0.00 0.00 0.00 77 1013.0
20260507085723 56 38 0.0 0.0 0.00 0.00 0.00 77 1013.1
20260507085522 56 37 0.0 0.0 0.00 0.00 0.00 77 1013.1
20260507085025 56 38 0.0 0.0 0.00 0.00 0.00 77 1013.1
20260507084737 56 38 0.0 0.0 0.00 0.00 0.00 77 1013.1
20260507084537 56 38 0.0 0.0 0.00 0.00 0.00 77 1013.1
20260507084041 56 36 0.0 0.0 0.00 0.00 0.00 77 1013.2
20260507083749 56 36 0.0 0.0 0.00 0.00 0.00 77 1013.2
20260507083525 56 36 0.0 0.0 0.00 0.00 0.00 77 1013.2
20260507083027 56 36 0.0 0.0 0.00 0.00 0.00 77 1013.2
20260507082738 56 36 0.0 0.0 0.00 0.00 0.00 77 1013.2
20260507082536 56 36 0.0 0.0 0.00 0.00 0.00 76 1013.3
20260507082023 56 36 0.0 0.0 0.00 0.00 0.00 76 1013.3
20260507081729 56 36 0.0 0.0 0.00 0.00 0.00 76 1013.3
20260507081546 56 36 0.0 0.0 0.00 0.00 0.00 76 1013.3
20260507081032 57 36 0.0 0.0 0.00 0.00 0.00 76 1013.2
20260507080738 57 36 0.0 0.0 0.00 0.00 0.00 76 1013.2
20260507080520 57 36 0.0 0.0 0.00 0.00 0.00 76 1013.2
20260507080024 57 36 0.0 0.0 0.00 0.00 0.00 76 1013.2
20260507075728 57 36 0.0 0.0 0.00 0.00 0.00 75 1013.2
20260507075553 57 36 0.0 0.0 0.00 0.00 0.00 75 1013.2
20260507075035 57 36 0.0 0.0 0.00 0.00 0.00 75 1013.2
20260507074741 57 36 0.0 0.0 0.00 0.00 0.00 75 1013.2
20260507074523 57 36 0.0 0.0 0.00 0.00 0.00 75 1013.2
20260507074027 57 36 0.0 0.0 0.00 0.00 0.00 75 1013.2
20260507073731 57 36 0.0 0.0 0.00 0.00 0.00 75 1013.2
20260507073535 57 36 0.0 0.0 0.00 0.00 0.00 75 1013.2
20260507073038 57 33 0.0 0.0 0.00 0.00 0.00 75 1013.2
20260507072726 57 32 0.0 0.0 0.00 0.00 0.00 75 1013.2
20260507072528 57 32 0.0 0.0 0.00 0.00 0.00 75 1013.2
20260507072033 57 32 0.0 0.0 0.00 0.00 0.00 75 1013.2
20260507071724 57 32 0.0 0.0 0.00 0.00 0.00 75 1013.2
20260507071524 57 32 0.0 0.0 0.00 0.00 0.00 75 1013.2
20260507071029 57 32 0.0 0.0 0.00 0.00 0.00 75 1013.3
20260507070739 57 32 0.0 0.0 0.00 0.00 0.00 74 1013.3
20260507070540 58 32 0.0 0.0 0.00 0.00 0.00 74 1013.3
20260507070022 58 32 0.0 0.0 0.00 0.00 0.00 74 1013.3
20260507065748 58 32 0.0 0.0 0.00 0.00 0.00 74 1013.4
20260507065549 58 32 0.0 0.0 0.00 0.00 0.00 74 1013.4
20260507065051 58 32 0.0 0.0 0.00 0.00 0.00 74 1013.4
20260507064722 58 32 0.0 0.0 0.00 0.00 0.00 74 1013.4
20260507064519 58 32 0.0 0.0 0.00 0.00 0.00 74 1013.4
20260507064021 58 32 0.0 0.0 0.00 0.00 0.00 74 1013.4
20260507063730 58 32 0.0 0.0 0.00 0.00 0.00 74 1013.4
20260507063531 58 32 0.0 0.0 0.00 0.00 0.00 74 1013.4
20260507063033 58 32 0.0 0.0 0.00 0.00 0.00 74 1013.4
20260507062720 58 32 0.0 0.0 0.00 0.00 0.00 74 1013.3
20260507062538 58 32 0.0 0.0 0.00 0.00 0.00 74 1013.3
20260507062020 58 32 0.0 0.0 0.00 0.00 0.00 74 1013.3
20260507061730 58 32 0.0 0.0 0.00 0.00 0.00 74 1013.3
20260507061528 58 32 0.0 0.0 0.00 0.00 0.00 74 1013.3
20260507061031 58 32 0.0 0.0 0.00 0.00 0.00 74 1013.6
20260507060723 58 32 0.0 0.0 0.00 0.00 0.00 74 1013.6
20260507060520 58 32 0.0 0.0 0.00 0.00 0.00 74 1013.6
20260507060029 58 31 0.0 0.0 0.00 0.00 0.00 74 1013.6
20260507055732 58 31 0.0 0.0 0.00 0.00 0.00 74 1013.6
20260507055537 58 31 0.0 0.0 0.00 0.00 0.00 74 1013.6
20260507055038 58 31 0.0 0.0 0.00 0.00 0.00 74 1013.6
20260507054722 58 31 0.0 0.0 0.00 0.00 0.00 74 1013.6
20260507054527 58 17 0.0 0.0 0.00 0.00 0.00 74 1013.6
20260507054050 58 14 0.0 0.0 0.00 0.00 0.00 74 1013.6
20260507053734 58 13 0.0 0.0 0.00 0.00 0.00 74 1013.6
20260507053536 58 339 0.0 0.0 0.00 0.00 0.00 74 1013.6
20260507053038 58 333 0.0 0.0 0.00 0.00 0.00 74 1013.6
20260507052721 58 333 0.0 0.0 0.00 0.00 0.00 74 1013.4
20260507052524 58 333 0.0 0.0 0.00 0.00 0.00 74 1013.4
20260507052027 58 332 0.0 0.0 0.00 0.00 0.00 74 1013.4
20260507051752 58 282 0.0 0.0 0.00 0.00 0.00 74 1013.4
20260507051533 58 282 0.0 0.0 0.00 0.00 0.00 74 1013.4
20260507051055 58 282 0.0 0.0 0.00 0.00 0.00 73 1013.5
20260507050759 58 282 0.0 0.0 0.00 0.00 0.00 73 1013.5
20260507050520 58 282 0.0 0.0 0.00 0.00 0.00 73 1013.5
20260507050023 58 282 0.0 0.0 0.00 0.00 0.00 73 1013.5
20260507045727 58 282 0.0 0.0 0.00 0.00 0.00 73 1013.5
20260507045532 58 282 0.0 0.0 0.00 0.00 0.00 73 1013.5
20260507045035 59 282 0.0 0.0 0.00 0.00 0.00 73 1013.5
20260507044724 59 282 0.0 0.0 0.00 0.00 0.00 72 1013.5
20260507044542 59 281 0.0 0.0 0.00 0.00 0.00 72 1013.5
20260507044024 59 278 0.0 0.0 0.00 0.00 0.00 72 1013.5
20260507043736 59 278 0.0 0.0 0.00 0.00 0.00 72 1013.5
20260507043516 59 278 0.0 0.0 0.00 0.00 0.00 72 1013.5
20260507043043 59 278 0.0 0.0 0.00 0.00 0.00 72 1013.5
20260507042749 59 278 0.0 0.0 0.00 0.00 0.00 72 1013.5
20260507042528 59 278 0.0 0.0 0.00 0.00 0.00 72 1013.5
20260507042030 59 278 0.0 0.0 0.00 0.00 0.00 72 1013.5
20260507041722 59 278 0.0 0.0 0.00 0.00 0.00 72 1013.5
20260507041519 59 278 0.0 0.0 0.00 0.00 0.00 72 1013.5
20260507041024 59 278 0.0 0.0 0.00 0.00 0.00 71 1013.5
20260507040732 59 278 0.0 0.0 0.00 0.00 0.00 71 1013.5
20260507040528 59 278 0.0 0.0 0.00 0.00 0.00 71 1013.5
20260507040034 59 278 0.0 0.0 0.00 0.00 0.00 71 1013.5
20260507035724 60 278 0.0 0.0 0.00 0.00 0.00 71 1013.4
20260507035524 60 278 0.0 0.0 0.00 0.00 0.00 71 1013.4
20260507035027 60 278 0.0 0.0 0.00 0.00 0.00 71 1013.4
20260507034735 60 278 0.0 0.0 0.00 0.00 0.00 71 1013.4
20260507034531 60 278 0.0 0.0 0.00 0.00 0.00 71 1013.4
20260507034016 60 278 0.0 0.0 0.00 0.00 0.00 71 1013.2
20260507033729 60 278 0.0 0.0 0.00 0.00 0.00 71 1013.2
20260507033527 60 278 0.0 0.0 0.00 0.00 0.00 71 1013.2
20260507033034 61 278 0.0 0.0 0.00 0.00 0.00 71 1013.2
20260507032717 61 277 0.0 0.0 0.00 0.00 0.00 70 1013.2
20260507032521 61 277 0.0 0.0 0.00 0.00 0.00 70 1013.2
20260507032023 61 277 0.0 0.0 0.00 0.00 0.00 69 1013.2
20260507031730 61 277 0.0 0.0 0.00 0.00 0.00 69 1013.2
20260507031556 61 277 0.0 0.0 0.00 0.00 0.00 68 1013.2
20260507031035 62 277 0.0 0.0 0.00 0.00 0.00 68 1013.1
20260507030720 62 277 0.0 0.0 0.00 0.00 0.00 67 1013.1
20260507030520 62 277 0.0 0.0 0.00 0.00 0.00 67 1013.1
20260507030021 62 269 0.0 0.0 0.00 0.00 0.00 66 1013.1
20260507025724 62 266 0.0 0.0 0.00 0.00 0.00 66 1012.8
20260507025524 62 266 0.0 0.0 0.00 0.00 0.00 66 1012.8
20260507025026 62 266 0.0 0.0 0.00 0.00 0.00 65 1012.8
20260507024750 62 266 0.0 0.0 0.00 0.00 0.00 65 1012.8
20260507024534 62 266 0.0 0.0 0.00 0.00 0.00 65 1012.8
20260507024036 63 266 0.0 0.0 0.00 0.00 0.00 64 1012.7
20260507023724 63 266 0.0 0.0 0.00 0.00 0.00 64 1012.7
20260507023542 63 266 0.0 0.0 0.00 0.00 0.00 63 1012.7